Albion, NE

6:08 PM CST on February 25, 2017 (GMT -0600)
Albion Municipal

Weather History for KBVN - September, 2012

Change the Weather History Date:

Sunday, September 2, 2012

  Actual Average (KOFK) Record (KOFK)
Temperature  
Mean Temperature 80 °F -  
Max Temperature 97 °F 83 °F 101 °F (1956)
Min Temperature 64 °F 58 °F 40 °F (1974)
Cooling Degree Days 15    
Growing Degree Days 30 (Base 50)    
Moisture  
Dew Point 62 °F    
Average Humidity 60    
Maximum Humidity 91    
Minimum Humidity 28    
Precipitation  
Precipitation 0.00 in - - ()
Sea Level Pressure  
Sea Level Pressure 29.93 in    
Wind  
Wind Speed 6 mph (South)    
Max Wind Speed 15 mph    
Max Gust Speed 21 mph    
Visibility 10 miles    
Events      
Averages and records for this station are not official NWS values.
T = Trace of Precipitation, MM = Missing Value Source: NWS Daily Summary

Daily Weather History Graph

Daily Weather History Graph

Search for Another Location

Airport or City:

Trip Planner

Search our weather history database for the weather conditions in past years. The results will help you decide how hot, cold, wet, or windy it might be!

Date:

Astronomy

Sep. 02, 2012 Rise Set
Actual Time 6:59 AM CDT 8:02 PM CDT
Civil Twilight 6:31 AM CDT 8:31 PM CDT
Nautical Twilight 5:57 AM CDT 9:05 PM CDT
Astronomical Twilight 5:21 AM CDT 9:40 PM CDT
Moon 8:47 PM CDT (9/2) 9:12 AM CDT (9/2)
Length of Visible Light 14h 00m
Length of Day
13h 03m
Waning Gibbous, 95% of the Moon is Illuminated
Sep 2
Waning Gibbous
Sep 8
Last Quarter
Sep 15
New
Sep 22
First Quarter
Sep 29
Full

Hourly Weather History & Observations

Time (CDT) Temp. Heat Index Dew Point Humidity Pressure Visibility Wind Dir Wind Speed Gust Speed Precip Events Conditions
12:15 AM 69.3 °F - 61.2 °F 75% 29.99 in 10.0 mi SSE 3.5 mph - N/A   Clear
12:35 AM 68.7 °F - 61.5 °F 78% 29.98 in 10.0 mi SE 4.6 mph - N/A   Clear
12:55 AM 69.4 °F - 61.9 °F 77% 29.98 in 10.0 mi SE 6.9 mph - N/A   Clear
1:15 AM 69.4 °F - 61.9 °F 77% 29.98 in 10.0 mi SE 5.8 mph - N/A   Clear
1:35 AM 68.9 °F - 61.9 °F 78% 29.98 in 10.0 mi SE 6.9 mph - N/A   Clear
1:55 AM 68.7 °F - 61.3 °F 77% 29.98 in 10.0 mi SE 5.8 mph - N/A   Clear
2:15 AM 68.2 °F - 61.7 °F 80% 29.98 in 10.0 mi SE 6.9 mph - N/A   Clear
2:35 AM 68.0 °F - 61.7 °F 80% 29.97 in 10.0 mi SE 5.8 mph - N/A   Clear
2:55 AM 67.3 °F - 61.9 °F 83% 29.97 in 10.0 mi SSE 3.5 mph - N/A   Clear
3:15 AM 66.7 °F - 61.9 °F 84% 29.97 in 10.0 mi SSE 3.5 mph - N/A   Clear
3:35 AM 66.2 °F - 61.3 °F 84% 29.97 in 10.0 mi SE 4.6 mph - N/A   Clear
3:55 AM 66.7 °F - 62.2 °F 85% 29.97 in 10.0 mi SE 6.9 mph - N/A   Clear
4:15 AM 66.7 °F - 62.2 °F 85% 29.96 in 10.0 mi SE 5.8 mph - N/A   Clear
4:35 AM 66.0 °F - 62.1 °F 87% 29.97 in 10.0 mi SSE 4.6 mph - N/A   Clear
4:55 AM 66.4 °F - 62.6 °F 88% 29.97 in 10.0 mi SSE 4.6 mph - N/A   Clear
5:15 AM 66.6 °F - 62.6 °F 87% 29.97 in 10.0 mi SSE 4.6 mph - N/A   Clear
5:35 AM 65.7 °F - 62.2 °F 89% 29.96 in 10.0 mi SE 5.8 mph - N/A   Clear
5:55 AM 65.5 °F - 62.1 °F 89% 29.96 in 7.0 mi Calm Calm - N/A   Clear
6:15 AM 64.8 °F - 61.7 °F 90% 29.97 in 7.0 mi Calm Calm - N/A   Clear
6:35 AM 64.4 °F - 61.7 °F 91% 29.97 in 7.0 mi SSE 4.6 mph - N/A   Clear
6:55 AM 64.8 °F - 61.7 °F 90% 29.97 in 7.0 mi SE 4.6 mph - N/A   Clear
7:15 AM 64.6 °F - 61.9 °F 91% 29.98 in 7.0 mi SE 3.5 mph - N/A   Clear
7:35 AM 65.7 °F - 62.6 °F 90% 29.98 in 7.0 mi SSE 4.6 mph - N/A   Clear
7:55 AM 66.4 °F - 63.1 °F 89% 29.98 in 5.0 mi Calm Calm - N/A   Clear
8:15 AM 67.6 °F - 64.0 °F 88% 29.97 in 7.0 mi SSE 5.8 mph - N/A   Clear
8:35 AM 70.2 °F - 64.9 °F 83% 29.97 in 10.0 mi SE 4.6 mph - N/A   Clear
8:55 AM 71.1 °F - 64.9 °F 81% 29.97 in 10.0 mi SSE 5.8 mph - N/A   Clear
9:15 AM 73.9 °F - 65.1 °F 74% 29.96 in 10.0 mi South 11.5 mph - N/A   Clear
9:35 AM 75.6 °F - 64.9 °F 69% 29.97 in 10.0 mi South 11.5 mph - N/A   Clear
9:55 AM 77.9 °F - 64.9 °F 64% 29.97 in 10.0 mi South 10.4 mph - N/A   Clear
10:15 AM 79.2 °F - 64.6 °F 61% 29.96 in 10.0 mi South 12.7 mph 18.4 mph N/A   Clear
10:35 AM 81.3 °F 83.0 °F 64.8 °F 57% 29.97 in 10.0 mi South 12.7 mph 17.3 mph N/A   Clear
10:55 AM 82.8 °F 84.5 °F 65.1 °F 55% 29.96 in 10.0 mi South 15.0 mph 20.7 mph N/A   Clear
11:15 AM 84.0 °F 85.6 °F 64.6 °F 52% 29.96 in 10.0 mi South 11.5 mph 18.4 mph N/A   Clear
11:35 AM 86.5 °F 87.8 °F 64.4 °F 47% 29.96 in 10.0 mi South 15.0 mph 18.4 mph N/A   Clear
11:55 AM 87.3 °F 88.6 °F 63.9 °F 46% 29.95 in 10.0 mi South 15.0 mph 18.4 mph N/A   Clear
12:15 PM 88.5 °F 89.5 °F 63.5 °F 43% 29.94 in 10.0 mi South 13.8 mph - N/A   Clear
12:35 PM 89.8 °F 90.7 °F 63.1 °F 41% 29.93 in 10.0 mi South 13.8 mph 20.7 mph N/A   Clear
12:55 PM 90.1 °F 90.9 °F 62.6 °F 40% 29.93 in 10.0 mi South 11.5 mph 18.4 mph N/A   Clear
1:15 PM 90.7 °F 91.3 °F 62.4 °F 39% 29.92 in 10.0 mi South 10.4 mph - N/A   Clear
1:35 PM 91.2 °F 91.8 °F 62.2 °F 38% 29.91 in 10.0 mi South 13.8 mph 18.4 mph N/A   Clear
1:55 PM 92.3 °F 92.7 °F 61.9 °F 36% 29.89 in 10.0 mi SSE 13.8 mph - N/A   Clear
2:15 PM 93.7 °F 93.7 °F 61.0 °F 33% 29.90 in 10.0 mi South 15.0 mph - N/A   Clear
2:35 PM 93.6 °F 93.8 °F 61.0 °F 34% 29.90 in 10.0 mi South 11.5 mph - N/A   Clear
2:55 PM 94.1 °F 94.6 °F 61.3 °F 34% 29.89 in 10.0 mi South 10.4 mph - N/A   Clear
3:15 PM 94.6 °F 95.1 °F 61.3 °F 33% 29.88 in 10.0 mi SSE 9.2 mph - N/A   Clear
3:35 PM 96.1 °F 96.4 °F 61.2 °F 31% 29.88 in 10.0 mi SW 9.2 mph 17.3 mph N/A   Clear
3:55 PM 96.1 °F 96.0 °F 59.9 °F 30% 29.88 in 10.0 mi South 10.4 mph - N/A   Clear
4:15 PM 96.3 °F 96.3 °F 60.1 °F 30% 29.88 in 10.0 mi SSW 9.2 mph - N/A   Clear
4:35 PM 96.8 °F 96.2 °F 58.6 °F 28% 29.87 in 10.0 mi SW 11.5 mph - N/A   Clear
4:55 PM 95.9 °F 95.3 °F 58.5 °F 29% 29.87 in 10.0 mi SSW 10.4 mph - N/A   Clear
5:15 PM 96.4 °F 96.1 °F 59.0 °F 29% 29.86 in 10.0 mi South 6.9 mph - N/A   Clear
5:35 PM 95.4 °F 94.6 °F 58.6 °F 29% 29.86 in 10.0 mi SW 6.9 mph - N/A   Clear
5:55 PM 94.1 °F 93.5 °F 59.2 °F 31% 29.86 in 10.0 mi SSW 6.9 mph - N/A   Clear
6:15 PM 94.3 °F 93.7 °F 59.5 °F 31% 29.86 in 10.0 mi SSW 6.9 mph - N/A   Clear
6:35 PM 93.4 °F 93.2 °F 59.9 °F 33% 29.85 in 10.0 mi South 5.8 mph - N/A   Clear
6:55 PM 92.8 °F 92.8 °F 60.3 °F 34% 29.86 in 10.0 mi SSW 4.6 mph - N/A   Clear
7:15 PM 92.3 °F 92.7 °F 62.1 °F 36% 29.86 in 10.0 mi Calm Calm - N/A   Clear
7:35 PM 90.0 °F 91.3 °F 63.9 °F 42% 29.86 in 10.0 mi Calm Calm - N/A   Clear
7:55 PM 88.0 °F 89.3 °F 64.4 °F 45% 29.86 in 10.0 mi Calm Calm - N/A   Clear
8:15 PM 86.0 °F 87.1 °F 63.5 °F 47% 29.87 in 10.0 mi Calm Calm - N/A   Clear
8:35 PM 85.5 °F 86.3 °F 63.3 °F 47% 29.87 in 10.0 mi Calm Calm - N/A   Clear
8:55 PM 81.7 °F 83.8 °F 66.0 °F 59% 29.88 in 10.0 mi Calm Calm - N/A   Clear
9:15 PM 81.1 °F 82.5 °F 63.7 °F 55% 29.89 in 10.0 mi Calm Calm - N/A   Clear
9:35 PM 81.0 °F 82.7 °F 64.8 °F 58% 29.89 in 10.0 mi Calm Calm - N/A   Clear
9:55 PM 80.1 °F 81.4 °F 62.8 °F 55% 29.90 in 10.0 mi Calm Calm - N/A   Clear
10:15 PM 77.9 °F - 63.3 °F 61% 29.90 in 10.0 mi North 3.5 mph - N/A   Clear
10:35 PM 79.5 °F - 64.0 °F 59% 29.91 in 10.0 mi NW 5.8 mph - N/A   Clear
10:55 PM 77.4 °F - 64.4 °F 64% 29.91 in 10.0 mi NW 4.6 mph - N/A   Clear
11:15 PM 77.7 °F - 62.1 °F 58% 29.92 in 10.0 mi NW 3.5 mph - N/A   Clear
11:35 PM 76.8 °F - 60.3 °F 56% 29.92 in 10.0 mi Calm Calm - N/A   Clear
11:55 PM 75.4 °F - 59.9 °F 58% 29.92 in 10.0 mi NE 4.6 mph - N/A   Clear